FW7275 Weather Reports


Display with metric or nautical units.
time (UTC)temp
F
wind
direction
speed
MPH
gust
MPH
rain 1hr
in
rain 24hr
in
rain mn
in
humidity
%
barometer
mb
20260506091031 68 0 0.0 0.0 0.00 0.00 0.00 55
20260506090029 70 0 0.0 0.0 0.00 0.00 0.00 55
20260506085028 70 0 0.0 0.0 0.00 0.00 0.00 55
20260506084028 70 0 0.0 0.0 0.00 0.00 0.00 55
20260506083026 70 0 0.0 0.0 0.00 0.00 0.00 57
20260506082034 69 0 0.0 0.0 0.00 0.00 0.00 58
20260506081031 68 0 0.0 0.0 0.00 0.00 0.00 63
20260506073023 67 0 0.0 0.0 0.00 0.00 0.00 65
20260506072026 67 0 0.0 0.0 0.00 0.00 0.00 66
20260506071024 66 0 0.0 0.0 0.00 0.00 0.00 66
20260506062021 60 0 0.0 0.0 0.00 0.00 0.00 75
20260506061022 61 0 0.0 0.0 0.00 0.00 0.00 75
20260506051028 56 0 0.0 0.0 0.00 0.00 0.00 86
20260506045024 50 0 0.0 0.0 0.00 0.00 0.00 91
20260506044035 49 0 0.0 0.0 0.00 0.00 0.00 91
20260506043027 49 0 0.0 0.0 0.00 0.00 0.00 90
20260506042020 49 0 0.0 0.0 0.00 0.00 0.00 91
20260506041033 49 0 0.0 0.0 0.00 0.00 0.00 91
20260506035018 49 0 0.0 0.0 0.00 0.00 0.00 91
20260506034017 50 0 0.0 0.0 0.00 0.00 0.00 91
20260506032029 49 0 0.0 0.0 0.00 0.00 0.00 90
20260506031025 50 0 0.0 0.0 0.00 0.00 0.00 90
20260506030034 49 0 0.0 0.0 0.00 0.00 0.00 90
20260506025026 49 0 0.0 0.0 0.00 0.00 0.00 90
20260506024020 49 0 0.0 0.0 0.00 0.00 0.00 90
20260506023023 49 0 0.0 0.0 0.00 0.00 0.00 90
20260506021024 50 0 0.0 0.0 0.00 0.00 0.00 89
20260506020029 50 0 0.0 0.0 0.00 0.00 0.00 89
20260506014029 50 0 0.0 0.0 0.00 0.00 0.00 88
20260506013021 51 0 0.0 0.0 0.00 0.00 0.00 88
20260506012029 51 0 0.0 0.0 0.00 0.00 0.00 88
20260506011033 52 0 0.0 0.0 0.00 0.00 0.00 88
20260506010025 52 0 0.0 0.0 0.00 0.00 0.00 88
20260506003035 53 0 0.0 0.0 0.00 0.00 0.00 86
20260506002032 54 0 0.0 0.0 0.00 0.00 0.00 86
20260506001025 54 0 0.0 0.0 0.00 0.00 0.00 86
20260505234030 54 0 0.0 0.0 0.01 0.00 0.02 85
20260505233029 54 0 0.0 0.0 0.02 0.00 0.02 85
20260505232021 54 0 0.0 0.0 0.02 0.00 0.02 85
20260505231023 54 0 0.0 0.0 0.02 0.00 0.02 85
20260505230041 54 0 0.0 0.0 0.02 0.00 0.02 85
20260505224034 56 0 0.0 0.0 0.01 0.00 0.01 83
20260505222023 56 0 0.0 0.0 0.00 0.00 0.00 83
20260505220031 56 0 0.0 0.0 0.00 0.00 0.00 82
20260505215025 56 0 0.0 0.0 0.00 0.00 0.00 81
20260505214020 56 0 0.0 0.0 0.00 0.00 0.00 81
20260505213035 57 0 0.0 0.0 0.00 0.00 0.00 80
20260505212024 58 0 0.0 0.0 0.00 0.00 0.00 78
20260505211025 59 0 0.0 0.0 0.00 0.00 0.00 74
20260505205031 59 0 0.0 0.0 0.00 0.00 0.00 75
20260505204028 59 0 0.0 0.0 0.00 0.00 0.00 76
20260505203031 58 0 0.0 0.0 0.00 0.00 0.00 77
20260505202045 58 0 0.0 0.0 0.00 0.00 0.00 79
20260505201025 58 0 0.0 0.0 0.00 0.00 0.00 79
20260505194025 59 0 0.0 0.0 0.00 0.00 0.00 77
20260505193027 60 0 0.0 0.0 0.00 0.00 0.00 76
20260505192032 60 0 0.0 0.0 0.00 0.00 0.00 75
20260505190038 60 0 0.0 0.0 0.00 0.00 0.00 74
20260505184027 61 0 0.0 0.0 0.00 0.00 0.00 71
20260505183033 61 0 0.0 0.0 0.00 0.00 0.00 70
20260505182020 62 0 0.0 0.0 0.00 0.00 0.00 68
20260505181030 63 0 0.0 0.0 0.00 0.00 0.00 68
20260505180035 63 0 0.0 0.0 0.00 0.00 0.00 66
20260505175021 64 0 0.0 0.0 0.00 0.00 0.00 66
20260505174036 64 0 0.0 0.0 0.00 0.00 0.00 64
20260505173026 64 0 0.0 0.0 0.00 0.00 0.00 64
20260505172026 64 0 0.0 0.0 0.00 0.00 0.00 64
20260505171023 66 0 0.0 0.0 0.00 0.00 0.00 63
20260505170041 66 0 0.0 0.0 0.00 0.00 0.00 61
20260505165023 67 0 0.0 0.0 0.00 0.00 0.00 61
20260505164028 66 0 0.0 0.0 0.00 0.00 0.00 63
20260505162027 65 0 0.0 0.0 0.00 0.00 0.00 64
20260505161030 65 0 0.0 0.0 0.00 0.00 0.00 63
20260505153029 65 0 0.0 0.0 0.00 0.00 0.00 63
20260505152033 65 0 0.0 0.0 0.00 0.00 0.00 63
20260505151025 66 0 0.0 0.0 0.00 0.00 0.00 62
20260505124030 79 0 0.0 0.0 0.00 0.00 0.00 33
20260505123028 79 0 0.0 0.0 0.00 0.00 0.00 34
20260505122022 80 0 0.0 0.0 0.00 0.00 0.00 33
20260505121027 82 0 0.0 0.0 0.00 0.00 0.00 32
20260505120035 82 0 0.0 0.0 0.00 0.00 0.00 32
20260505115027 81 0 0.0 0.0 0.00 0.00 0.00 34
20260505114022 80 0 0.0 0.0 0.00 0.00 0.00 34
20260505113030 80 0 0.0 0.0 0.00 0.00 0.00 36
20260505111028 80 0 0.0 0.0 0.00 0.00 0.00 36
20260505101032 78 0 0.0 0.0 0.00 0.00 0.00 38
20260505100029 78 0 0.0 0.0 0.00 0.00 0.00 39
20260505095020 76 0 0.0 0.0 0.00 0.00 0.00 42
20260505094041 78 0 0.0 0.0 0.00 0.00 0.00 45
20260505093032 76 0 0.0 0.0 0.00 0.00 0.00 46
20260505092031 76 0 0.0 0.0 0.00 0.00 0.00 47